Location: White Plains
(41.0340°N, 73.7629°W)
Time: 09:28:49
(UTC-04:00)

OTV 5 (USA 277) - Visible Passes

Search period start: 14 October 2019 00:00
Search period end: 24 October 2019 00:00
Orbit: 310 x 324 km, 54.5° (Epoch: 08 October)

Date Brightness Start Highest point End Pass type
(mag) Time Alt. Az. Time Alt. Az. Time Alt. Az.
15 Oct ? 05:58:08 10° N 05:58:54 11° NNE 05:59:39 10° NE visible
16 Oct ? 06:11:42 10° NNW 06:13:46 18° NNE 06:15:47 10° ENE visible
17 Oct ? 06:25:52 10° NW 06:28:29 40° NE 06:31:05 10° ESE visible
18 Oct ? 05:08:44 14° NNE 05:08:44 14° NNE 05:10:00 10° ENE visible
18 Oct ? 06:40:20 10° NW 06:43:04 66° SW 06:45:45 10° SE visible
19 Oct ? 05:23:15 26° NNE 05:23:15 26° NNE 05:25:38 10° E visible
20 Oct ? 05:37:54 68° NE 05:37:54 68° NE 05:40:37 10° SE visible
21 Oct ? 05:52:41 35° SSW 05:52:41 35° SSW 05:54:56 10° SSE visible
22 Oct ? 06:07:36 12° SSW 06:07:36 12° SSW 06:08:08 10° SSW visible
